1 Minute Report
Date Time Wind Direction Wind Speed Wind Gust Wind Variable Altimeter Temperature Dewpoint Relative Humidity Visibility Ceiling Precip Present Weather Density Alt Wind Chill Heat Index
18/04/23 03:39 000 00 N/A N/A 30.17 45(F), 7(C) 38(F), 3(C) 76% 10 CLR N/A N/A N/A 45 F N/A 5104
18/04/23 03:38 000 00 N/A N/A 30.17 45(F), 7(C) 37(F), 3(C) 76% 10 CLR N/A N/A N/A 45 F N/A 5103
18/04/23 03:37 000 00 N/A N/A 30.17 45(F), 7(C) 37(F), 3(C) 76% 10 CLR N/A N/A N/A 45 F N/A 5102
18/04/23 03:36 000 00 N/A N/A 30.17 45(F), 7(C) 37(F), 3(C) 76% 10 CLR N/A N/A N/A 45 F N/A 5101
18/04/23 03:35 000 00 N/A N/A 30.17 45(F), 7(C) 37(F), 3(C) 76% 10 CLR N/A N/A N/A 45 F N/A 5100
18/04/23 03:34 000 00 N/A N/A 30.17 45(F), 7(C) 37(F), 3(C) 76% 10 CLR N/A N/A N/A 45 F N/A 5099
18/04/23 03:33 000 00 N/A N/A 30.17 45(F), 7(C) 37(F), 3(C) 76% 10 CLR N/A N/A N/A 45 F N/A 5098
18/04/23 03:32 000 00 N/A N/A 30.17 45(F), 7(C) 37(F), 3(C) 76% 10 CLR N/A N/A N/A 45 F N/A 5097
18/04/23 03:31 000 00 N/A N/A 30.17 45(F), 7(C) 37(F), 3(C) 76% 10 CLR N/A N/A N/A 45 F N/A 5096
18/04/23 03:30 000 00 N/A N/A 30.17 45(F), 7(C) 37(F), 3(C) 76% 10 CLR N/A N/A N/A 45 F N/A 5095
18/04/23 03:29 000 00 N/A N/A 30.17 45(F), 7(C) 37(F), 3(C) 76% 10 CLR N/A N/A N/A 45 F N/A 5094
18/04/23 03:28 000 00 N/A N/A 30.17 45(F), 7(C) 37(F), 3(C) 76% 10 CLR N/A N/A N/A 45 F N/A 5093
18/04/23 03:27 000 00 N/A N/A 30.17 45(F), 7(C) 37(F), 3(C) 76% 10 CLR N/A N/A N/A 45 F N/A 5092
18/04/23 03:26 000 00 N/A N/A 30.17 45(F), 7(C) 37(F), 3(C) 76% 10 CLR N/A N/A N/A 45 F N/A 5091
18/04/23 03:25 000 00 N/A N/A 30.17 45(F), 7(C) 37(F), 3(C) 76% 10 CLR N/A N/A N/A 45 F N/A 5090
18/04/23 03:24 000 00 N/A N/A 30.17 45(F), 7(C) 37(F), 3(C) 76% 10 CLR N/A N/A N/A 45 F N/A 5089
18/04/23 03:23 000 00 N/A N/A 30.17 45(F), 7(C) 36(F), 2(C) 70% 10 CLR N/A N/A N/A 45 F N/A 5088
18/04/23 03:22 000 00 N/A N/A 30.17 45(F), 7(C) 36(F), 2(C) 70% 10 CLR N/A N/A N/A 45 F N/A 5087
18/04/23 03:21 000 00 N/A N/A 30.17 45(F), 7(C) 36(F), 2(C) 70% 10 CLR N/A N/A N/A 45 F N/A 5086
18/04/23 03:20 000 00 N/A N/A 30.17 45(F), 7(C) 36(F), 2(C) 70% 10 CLR N/A N/A N/A 45 F N/A 5085
18/04/23 03:19 000 00 N/A N/A 30.17 45(F), 7(C) 36(F), 2(C) 70% 10 CLR N/A N/A N/A 45 F N/A 5084
18/04/23 03:18 000 00 N/A N/A 30.17 45(F), 7(C) 36(F), 2(C) 70% 10 CLR N/A N/A N/A 45 F N/A 5083
18/04/23 03:17 000 00 N/A N/A 30.17 45(F), 7(C) 36(F), 2(C) 70% 10 CLR N/A N/A N/A 45 F N/A 5082
18/04/23 03:16 000 00 N/A N/A 30.17 45(F), 7(C) 36(F), 2(C) 70% 10 CLR N/A N/A N/A 45 F N/A 5081
18/04/23 03:15 000 00 N/A N/A 30.17 45(F), 7(C) 36(F), 2(C) 70% 10 CLR N/A N/A N/A 45 F N/A 5080
18/04/23 03:14 000 00 N/A N/A 30.17 45(F), 7(C) 36(F), 2(C) 70% 10 CLR N/A N/A N/A 45 F N/A 5079
18/04/23 03:13 000 00 N/A N/A 30.17 45(F), 7(C) 36(F), 2(C) 70% 10 CLR N/A N/A N/A 45 F N/A 5078
18/04/23 03:12 000 00 N/A N/A 30.17 45(F), 7(C) 36(F), 2(C) 70% 10 CLR N/A N/A N/A 45 F N/A 5077
18/04/23 03:11 000 00 N/A N/A 30.17 45(F), 7(C) 36(F), 2(C) 70% 10 CLR N/A N/A N/A 45 F N/A 5076
18/04/23 03:10 000 00 N/A N/A 30.17 45(F), 7(C) 36(F), 2(C) 70% 10 CLR N/A N/A N/A 45 F N/A 5075
18/04/23 03:09 000 00 N/A N/A 30.17 45(F), 7(C) 36(F), 2(C) 70% 10 CLR N/A N/A N/A 45 F N/A 5074
18/04/23 03:08 000 00 N/A N/A 30.17 45(F), 7(C) 36(F), 2(C) 70% 10 CLR N/A N/A N/A 45 F N/A 5073
18/04/23 03:07 000 00 N/A N/A 30.17 45(F), 7(C) 36(F), 2(C) 70% 10 CLR N/A N/A N/A 45 F N/A 5072
18/04/23 03:06 000 00 N/A N/A 30.17 45(F), 7(C) 36(F), 2(C) 70% 10 CLR N/A N/A N/A 45 F N/A 5071
18/04/23 03:05 000 00 N/A N/A 30.17 45(F), 7(C) 36(F), 2(C) 70% 10 CLR N/A N/A N/A 45 F N/A 5070
18/04/23 03:04 000 00 N/A N/A 30.17 45(F), 7(C) 36(F), 2(C) 70% 10 CLR N/A N/A N/A 45 F N/A 5069
18/04/23 03:03 000 00 N/A N/A 30.17 45(F), 7(C) 35(F), 2(C) 70% 10 CLR N/A N/A N/A 45 F N/A 5068
18/04/23 03:02 000 00 N/A N/A 30.17 45(F), 7(C) 35(F), 2(C) 70% 10 CLR N/A N/A N/A 45 F N/A 5067
18/04/23 03:01 000 00 N/A N/A 30.17 45(F), 7(C) 35(F), 2(C) 70% 10 CLR N/A N/A N/A 45 F N/A 5066
18/04/23 03:00 110 03 N/A N/A 30.16 45(F), 7(C) 35(F), 2(C) 70% 10 CLR N/A N/A N/A 45 F N/A 5065
18/04/23 02:59 110 03 N/A N/A 30.16 45(F), 7(C) 35(F), 2(C) 70% 10 CLR N/A N/A N/A 45 F N/A 5064
18/04/23 02:58 110 03 N/A N/A 30.16 45(F), 7(C) 35(F), 2(C) 70% 10 CLR N/A N/A N/A 45 F N/A 5063
18/04/23 02:57 110 03 N/A N/A 30.16 45(F), 7(C) 35(F), 2(C) 70% 10 CLR N/A N/A N/A 45 F N/A 5062
18/04/23 02:56 110 03 N/A N/A 30.16 45(F), 7(C) 35(F), 2(C) 70% 10 CLR N/A N/A N/A 45 F N/A 5061
18/04/23 02:55 110 03 N/A N/A 30.16 45(F), 7(C) 35(F), 2(C) 70% 10 SCT048 N/A N/A N/A 45 F N/A 5060
18/04/23 02:54 110 03 N/A N/A 30.16 45(F), 7(C) 35(F), 2(C) 70% 10 SCT048 N/A N/A N/A 45 F N/A 5059
18/04/23 02:53 100 03 N/A N/A 30.16 45(F), 7(C) 35(F), 2(C) 70% 10 SCT048 N/A N/A N/A 45 F N/A 5058
18/04/23 02:52 100 03 N/A N/A 30.16 45(F), 7(C) 35(F), 2(C) 70% 10 SCT048 N/A N/A N/A 45 F N/A 5057
18/04/23 02:51 100 03 N/A N/A 30.16 45(F), 7(C) 35(F), 2(C) 70% 10 SCT048 N/A N/A N/A 45 F N/A 5056
18/04/23 02:50 100 04 N/A N/A 30.16 45(F), 7(C) 35(F), 2(C) 70% 10 SCT048 N/A N/A N/A 45 F N/A 5055
18/04/23 02:49 100 04 N/A N/A 30.16 45(F), 7(C) 35(F), 2(C) 70% 10 SCT048 N/A N/A N/A 45 F N/A 5054
18/04/23 02:48 100 03 N/A N/A 30.16 45(F), 7(C) 35(F), 2(C) 70% 10 SCT048 N/A N/A N/A 45 F N/A 5053
18/04/23 02:47 100 03 N/A N/A 30.16 45(F), 7(C) 35(F), 2(C) 70% 10 SCT048 N/A N/A N/A 45 F N/A 5052
18/04/23 02:46 100 03 N/A N/A 30.16 45(F), 7(C) 35(F), 2(C) 70% 10 SCT048 N/A N/A N/A 45 F N/A 5051
18/04/23 02:45 100 03 N/A N/A 30.16 45(F), 7(C) 35(F), 2(C) 70% 10 SCT048 N/A N/A N/A 45 F N/A 5050
18/04/23 02:44 110 03 N/A N/A 30.16 45(F), 7(C) 35(F), 2(C) 70% 10 SCT048 N/A N/A N/A 45 F N/A 5049
18/04/23 02:43 110 03 N/A N/A 30.16 45(F), 7(C) 35(F), 2(C) 70% 10 SCT048 N/A N/A N/A 45 F N/A 5048
18/04/23 02:42 110 03 N/A N/A 30.16 45(F), 7(C) 35(F), 2(C) 70% 10 SCT048 N/A N/A N/A 45 F N/A 5047
18/04/23 02:41 110 03 N/A N/A 30.16 45(F), 7(C) 35(F), 2(C) 70% 10 SCT048 N/A N/A N/A 45 F N/A 5046
18/04/23 02:40 110 03 N/A N/A 30.16 45(F), 7(C) 35(F), 2(C) 70% 10 SCT048 N/A N/A N/A 45 F N/A 5045
18/04/23 02:39 110 03 N/A N/A 30.16 45(F), 7(C) 35(F), 2(C) 70% 10 SCT048 N/A N/A N/A 45 F N/A 5044
18/04/23 02:38 110 03 N/A N/A 30.16 45(F), 7(C) 35(F), 2(C) 70% 10 SCT048 N/A N/A N/A 45 F N/A 5043
18/04/23 02:37 110 03 N/A N/A 30.16 45(F), 7(C) 35(F), 2(C) 70% 10 SCT048 N/A N/A N/A 45 F N/A 5042
18/04/23 02:36 110 03 N/A N/A 30.16 45(F), 7(C) 36(F), 2(C) 70% 10 SCT048 N/A N/A N/A 45 F N/A 5041
18/04/23 02:35 110 03 N/A N/A 30.16 45(F), 7(C) 36(F), 2(C) 70% 10 SCT048 N/A N/A N/A 45 F N/A 5040
18/04/23 02:34 110 03 N/A N/A 30.16 45(F), 7(C) 36(F), 2(C) 70% 10 SCT048 N/A N/A N/A 45 F N/A 5039
18/04/23 02:33 110 03 N/A N/A 30.16 45(F), 7(C) 36(F), 2(C) 70% 10 SCT048 N/A N/A N/A 45 F N/A 5038
18/04/23 02:32 110 03 N/A N/A 30.16 45(F), 7(C) 35(F), 2(C) 70% 10 SCT048 N/A N/A N/A 45 F N/A 5037
18/04/23 02:31 110 03 N/A N/A 30.16 45(F), 7(C) 35(F), 2(C) 70% 10 SCT048 N/A N/A N/A 45 F N/A 5036
18/04/23 02:30 110 03 N/A N/A 30.16 45(F), 7(C) 35(F), 2(C) 70% 10 SCT048 N/A N/A N/A 45 F N/A 5035
18/04/23 02:29 000 00 N/A N/A 30.16 45(F), 7(C) 35(F), 2(C) 70% 10 SCT048 N/A N/A N/A 45 F N/A 5034
18/04/23 02:28 000 00 N/A N/A 30.16 45(F), 7(C) 35(F), 2(C) 70% 10 SCT048 N/A N/A N/A 45 F N/A 5033
18/04/23 02:27 120 03 N/A N/A 30.16 45(F), 7(C) 35(F), 2(C) 70% 10 SCT048 N/A N/A N/A 45 F N/A 5032
18/04/23 02:26 120 03 N/A N/A 30.16 45(F), 7(C) 35(F), 2(C) 70% 10 SCT046 N/A N/A N/A 45 F N/A 5031
18/04/23 02:25 120 03 N/A N/A 30.16 45(F), 7(C) 35(F), 2(C) 70% 10 SCT046 N/A N/A N/A 45 F N/A 5030
18/04/23 02:24 120 03 N/A N/A 30.16 45(F), 7(C) 35(F), 2(C) 70% 10 SCT046 N/A N/A N/A 45 F N/A 5029
18/04/23 02:23 120 03 N/A N/A 30.16 45(F), 7(C) 35(F), 2(C) 70% 10 SCT046 N/A N/A N/A 45 F N/A 5028
18/04/23 02:22 110 03 N/A N/A 30.16 45(F), 7(C) 35(F), 2(C) 70% 10 SCT046 N/A N/A N/A 45 F N/A 5027
18/04/23 02:21 110 03 N/A N/A 30.16 45(F), 7(C) 35(F), 2(C) 70% 10 SCT046 N/A N/A N/A 45 F N/A 5026
18/04/23 02:20 110 03 N/A N/A 30.16 45(F), 7(C) 35(F), 2(C) 70% 10 SCT046 N/A N/A N/A 45 F N/A 5025
18/04/23 02:19 100 03 N/A N/A 30.16 45(F), 7(C) 35(F), 2(C) 70% 10 SCT046 N/A N/A N/A 45 F N/A 5024
18/04/23 02:18 100 04 N/A N/A 30.16 45(F), 7(C) 35(F), 2(C) 70% 10 SCT046 N/A N/A N/A 45 F N/A 5023
18/04/23 02:17 100 04 N/A N/A 30.16 45(F), 7(C) 35(F), 2(C) 70% 10 SCT046 N/A N/A N/A 45 F N/A 5022
18/04/23 02:16 100 04 N/A N/A 30.16 45(F), 7(C) 35(F), 2(C) 70% 10 CLR N/A N/A N/A 45 F N/A 5021
18/04/23 02:15 100 03 N/A N/A 30.16 45(F), 7(C) 36(F), 2(C) 70% 10 CLR N/A N/A N/A 45 F N/A 5020
18/04/23 02:14 090 03 N/A N/A 30.16 45(F), 7(C) 36(F), 2(C) 70% 10 CLR N/A N/A N/A 45 F N/A 5019
18/04/23 02:13 090 03 N/A N/A 30.16 46(F), 8(C) 36(F), 2(C) 66% 10 CLR N/A N/A N/A 46 F N/A 5018
18/04/23 02:12 090 03 N/A N/A 30.16 46(F), 8(C) 36(F), 2(C) 66% 10 CLR N/A N/A N/A 46 F N/A 5017
18/04/23 02:11 090 03 N/A N/A 30.16 46(F), 8(C) 36(F), 2(C) 66% 10 CLR N/A N/A N/A 46 F N/A 5016
18/04/23 02:10 090 03 N/A N/A 30.16 46(F), 8(C) 36(F), 2(C) 66% 10 CLR N/A N/A N/A 46 F N/A 5015
18/04/23 02:09 100 03 N/A N/A 30.16 46(F), 8(C) 36(F), 2(C) 66% 10 CLR N/A N/A N/A 46 F N/A 5014
18/04/23 02:08 100 03 N/A N/A 30.16 46(F), 8(C) 36(F), 2(C) 66% 10 CLR N/A N/A N/A 46 F N/A 5013
18/04/23 02:07 100 03 N/A N/A 30.16 45(F), 7(C) 35(F), 2(C) 70% 10 CLR N/A N/A N/A 45 F N/A 5012
18/04/23 02:06 100 03 N/A N/A 30.15 45(F), 7(C) 35(F), 2(C) 70% 10 CLR N/A N/A N/A 45 F N/A 5011
18/04/23 02:05 100 03 N/A N/A 30.15 45(F), 7(C) 35(F), 2(C) 70% 10 CLR N/A N/A N/A 45 F N/A 5010
18/04/23 02:04 100 03 N/A N/A 30.15 45(F), 7(C) 35(F), 2(C) 70% 10 CLR N/A N/A N/A 45 F N/A 5009
18/04/23 02:03 100 03 N/A N/A 30.15 45(F), 7(C) 35(F), 2(C) 70% 10 CLR N/A N/A N/A 45 F N/A 5008
18/04/23 02:02 100 03 N/A N/A 30.15 45(F), 7(C) 35(F), 2(C) 70% 10 CLR N/A N/A N/A 45 F N/A 5007
18/04/23 02:01 100 03 N/A N/A 30.15 45(F), 7(C) 35(F), 2(C) 70% 10 CLR N/A N/A N/A 45 F N/A 5006
18/04/23 02:00 100 03 N/A N/A 30.15 45(F), 7(C) 35(F), 2(C) 70% 10 CLR N/A N/A N/A 45 F N/A 5005
18/04/23 01:59 100 03 N/A N/A 30.15 45(F), 7(C) 35(F), 2(C) 70% 10 CLR N/A N/A N/A 45 F N/A 5004
18/04/23 01:58 100 03 N/A N/A 30.15 45(F), 7(C) 35(F), 2(C) 70% 10 CLR N/A N/A N/A 45 F N/A 5003
18/04/23 01:57 100 03 N/A N/A 30.15 45(F), 7(C) 35(F), 2(C) 70% 10 CLR N/A N/A N/A 45 F N/A 5002
18/04/23 01:56 100 03 N/A N/A 30.15 45(F), 7(C) 35(F), 2(C) 70% 10 CLR N/A N/A N/A 45 F N/A 5001
18/04/23 01:55 090 04 N/A N/A 30.15 45(F), 7(C) 35(F), 2(C) 70% 10 CLR N/A N/A N/A 45 F N/A 5000
18/04/23 01:54 090 04 N/A N/A 30.15 45(F), 7(C) 35(F), 2(C) 70% 10 CLR N/A N/A N/A 45 F N/A 4999
18/04/23 01:53 080 04 N/A N/A 30.15 45(F), 7(C) 36(F), 2(C) 70% 10 CLR N/A N/A N/A 45 F N/A 4998
18/04/23 01:52 080 04 N/A N/A 30.14 46(F), 8(C) 36(F), 2(C) 66% 10 CLR N/A N/A N/A 46 F N/A 4997
18/04/23 01:51 080 04 N/A N/A 30.14 46(F), 8(C) 36(F), 2(C) 66% 10 CLR N/A N/A N/A 46 F N/A 4996
18/04/23 01:50 080 04 N/A N/A 30.14 46(F), 8(C) 36(F), 2(C) 66% 10 CLR N/A N/A N/A 46 F N/A 4995
18/04/23 01:49 080 05 N/A N/A 30.14 46(F), 8(C) 36(F), 2(C) 66% 10 CLR N/A N/A N/A 44 F N/A 4994
18/04/23 01:48 080 05 N/A N/A 30.14 46(F), 8(C) 36(F), 2(C) 66% 10 CLR N/A N/A N/A 44 F N/A 4993
18/04/23 01:47 080 05 N/A N/A 30.14 46(F), 8(C) 36(F), 2(C) 66% 10 CLR N/A N/A N/A 44 F N/A 4992
18/04/23 01:46 080 05 N/A N/A 30.14 46(F), 8(C) 36(F), 2(C) 66% 10 CLR N/A N/A N/A 44 F N/A 4991
18/04/23 01:45 080 05 N/A N/A 30.14 46(F), 8(C) 36(F), 2(C) 66% 10 CLR N/A N/A N/A 44 F N/A 4990
18/04/23 01:44 080 05 N/A N/A 30.14 46(F), 8(C) 36(F), 2(C) 66% 10 CLR N/A N/A N/A 44 F N/A 4989
18/04/23 01:43 080 05 N/A N/A 30.14 46(F), 8(C) 36(F), 2(C) 66% 10 CLR N/A N/A N/A 44 F N/A 4988
18/04/23 01:42 080 04 N/A N/A 30.14 47(F), 8(C) 36(F), 2(C) 66% 10 CLR N/A N/A N/A 47 F N/A 4987
18/04/23 01:41 080 04 N/A N/A 30.14 47(F), 8(C) 36(F), 2(C) 66% 10 CLR N/A N/A N/A 47 F N/A 4986
18/04/23 01:40 080 04 N/A N/A 30.14 47(F), 8(C) 37(F), 3(C) 71% 10 CLR N/A N/A N/A 47 F N/A 4985
18/04/23 01:39 080 04 N/A N/A 30.14 47(F), 8(C) 37(F), 3(C) 71% 10 CLR N/A N/A N/A 47 F N/A 4984